Regional Weather Roundup
Issued by NWS State College, PA

Home | Current Version | Previous Version | Graphics & Text | Print | Product List | Glossary On
Versions: 1 2 3 4 5 6 7 8 9 10 11 12 13 14 15 16 17 18 19 20 21 22 23 24 25 26 27 28 29 30 31 32 33 34 35 36 37 38 39 40 41 42 43 44 45 46 47 48 49 50
000
ASUS41 KCTP 291503
RWRCTP

REGIONAL WEATHER ROUNDUP
NATIONAL WEATHER SERVICE STATE COLLEGE PA
1100 AM EDT SUN MAR 29 2015

Note: "fair" indicates few or no clouds below 12,000 feet with no
significant weather and/or obstructions to visibility.

* = STATION THAT DOES NOT REPORT PRECIPITATION /E.G. RAIN...SNOW...ETC/
    THUNDER OR FOG.

PAZ002>004-007>009-013>016-020>023-029>032-291600-
WESTERN PENNSYLVANIA

CITY           SKY/WX    TMP DP  RH WIND       PRES   REMARKS
ERIE           SUNNY     35  12  38 S9        30.30S
MEADVILLE      SUNNY     30  15  53 SW9       30.27S
FRANKLIN*      SUNNY     30  14  51 S10G16    30.29S
NEW CASTLE     FAIR      33  15  48 VRB6      30.33F
BEAVER COUNTY  SUNNY     30  14  51 S8        30.31F
BUTLER*        SUNNY     30  14  51 W5        30.34S
PITTSBURGH INT MOSUNNY   30  11  45 SW8       30.34F
PITTSBURGH     SUNNY     29   8  41 CALM      30.33F
INDIANA*       SUNNY     28  12  50 VRB7      30.36F
LATROBE        SUNNY     28  14  54 SW9       30.38F
WASHINGTON CO* SUNNY     30  12  47 SW7       30.36F
$$

PAZ004>006-010>012-017>019-024>028-033>037-041-042-045-046-049>053-291600-
CENTRAL PENNSYLVANIA

CITY           SKY/WX    TMP DP  RH WIND       PRES   REMARKS
BRADFORD       SUNNY     26  10  50 W5        30.22F
DUBOIS         SUNNY     29  11  47 W8        30.27S
CLEARFIELD     SUNNY     28  12  51 VRB5      30.29F
JOHNSTOWN      SUNNY     24   8  50 NW5       30.26S
ALTOONA        SUNNY     28   8  43 W9        30.31F
STATE COLLEGE  SUNNY     28   5  37 CALM      30.32F
WILLIAMSPORT   SUNNY     31  10  41 W8        30.33F
SELINSGROVE    SUNNY     32   9  38 NW6       30.36F
FT INDIANTOWN  SUNNY     32   7  35 VRB7      30.35R
CAPITAL CITY   SUNNY     32   6  33 VRB7      30.38R
HARRISBURG     SUNNY     34   9  35 W12       30.37R
YORK           SUNNY     34   9  35 N12       30.37R
$$

PAZ038>040-043-044-047-048-054-055-060>062-067>071-291600-
EASTERN PENNSYLVANIA

CITY           SKY/WX    TMP DP  RH WIND       PRES   REMARKS
SCRANTON       SUNNY     31  10  41 CALM      30.28F
MOUNT POCONO   SUNNY     27   6  41 N9        30.20R
ALLENTOWN      SUNNY     34  10  37 NW12      30.32S
QUAKERTOWN*    SUNNY     32   9  37 N7        30.32R
READING        SUNNY     33   5  30 NW8       30.34R
LANCASTER      SUNNY     32   8  36 NW8G16    30.35R
COATESVILLE    SUNNY     32   7  34 N8        30.33R
POTTSTOWN      SUNNY     34   8  33 NW8G18    30.34S
BLUE BELL      SUNNY     34  10  37 NW6       30.31F
DOYLESTOWN     SUNNY     32   8  36 N13G18    30.30S
WILLOW GROVE   NOT AVBL
NORTH PHILA    SUNNY     36   5  27 NW14      30.34S
PHILADELPHIA   SUNNY     35   6  29 N9G18     30.35R
$$


USA.gov is the U.S. government's official web portal to all federal, state and local government web resources and services.